This demonstration page uses our WeatherBlox Daily Observations layout. Learn more.

Left ArrowRight Arrow

41.55636, -103.73856

Hourly Observations for July 21, 2017

Temp ( °F °C ) Dew Point ( °F °C ) Humidity (%) Winds ( mph kmh ) Pressure ( in mb ) Visibility ( mi km ) Precip ( " mm )
12:53 am 00:53 Clear 76 24.4 56 13.3 50 50 NNW 22 35 29.86 1011 10 16 0.00 0.00
1:53 am 01:53 Clear 72 22.2 56 13.3 57 57 WSW 8 13 29.83 1010 10 16 0.00 0.00
2:53 am 02:53 Clear 71 21.7 57 13.9 61 61 W 6 9 29.81 1010 10 16 0.00 0.00
3:53 am 03:53 Clear 67 19.4 58 14.4 73 73 Calm 29.80 1009 10 16 0.00 0.00
4:53 am 04:53 Clear 65 18.3 59 15 81 81 Calm 29.79 1009 10 16 0.00 0.00
5:53 am 05:53 Sunny 65 18.3 60 15.6 84 84 NNE 7 11 29.82 1010 10 16 0.00 0.00
6:53 am 06:53 Sunny 69 20.6 61 16.1 76 76 ESE 3 6 29.85 1011 10 16 0.00 0.00
7:53 am 07:53 Sunny 74 23.3 59 15 60 60 Calm 29.83 1010 10 16 0.00 0.00
8:53 am 08:53 Sunny 78 25.6 57 13.9 48 48 WNW 8 13 29.84 1011 10 16 0.00 0.00
9:53 am 09:53 Sunny 82 27.8 59 15 46 46 W 8 13 29.84 1011 10 16 0.00 0.00
10:53 am 10:53 Sunny 87 30.6 56 13.3 35 35 WNW 10 17 29.85 1011 10 16 0.00 0.00
11:53 am 11:53 Sunny 89 31.7 58 14.4 35 35 W 7 11 29.84 1010 10 16 0.00 0.00
12:53 pm 12:53 Sunny 95 35 54 12.2 25 25 NW 8 13 29.82 1010 10 16 0.00 0.00
1:53 pm 13:53 Sunny 96 35.6 48 8.9 19 19 NNW 10 17 29.81 1010 10 16 0.00 0.00
2:53 pm 14:53 Sunny 96 35.6 49 9.4 20 20 NW 12 19 29.81 1009 10 16 0.00 0.00
3:53 pm 15:53 Sunny 94 34.4 47 8.3 20 20 N 8 13 29.80 1009 10 16 0.00 0.00
4:53 pm 16:53 Sunny 96 35.6 49 9.4 20 20 NE 7 11 29.79 1009 10 16 0.00 0.00
5:53 pm 17:53 Sunny 92 33.3 51 10.6 25 25 NE 5 7 29.80 1009 10 16 0.00 0.00
6:53 pm 18:53 Sunny 90 32.2 56 13.3 32 32 ENE 5 7 29.79 1009 10 16 0.00 0.00
7:53 pm 19:53 Sunny 85 29.4 57 13.9 39 39 Calm 29.83 1010 10 16 0.00 0.00
8:53 pm 20:53 Mostly Clear 82 27.8 50 10 33 33 W 13 20 29.85 1011 10 16 0.00 0.00
9:53 pm 21:53 Clear 79 26.1 49 9.4 35 35 WNW 15 24 29.86 1011 10 16 0.00 0.00
10:53 pm 22:53 Clear 76 24.4 50 10 40 40 WSW 7 11 29.88 1012 10 16 0.00 0.00
11:53 pm 23:53 Clear 75 23.9 51 10.6 43 43 S 8 13 29.88 1012 10 16 0.00 0.00

Powered by AerisWeather